This demonstration page uses our WeatherBlox Daily Observations layout. Learn more.

Left ArrowRight Arrow

36.19886, -115.1175

Hourly Observations for December 9, 2015

Temp ( °F °C ) Dew Point ( °F °C ) Humidity (%) Winds ( mph kmh ) Pressure ( in mb ) Visibility ( mi km ) Precip ( " mm )
12:53 am 00:53 Clear 49 9.4 27 -2.8 43 43 W 5 7 30.16 1022 10 16 0.00 0.00
1:53 am 01:53 Clear 46 7.8 26 -3.3 46 46 NNW 3 6 30.16 1021 10 16 0.00 0.00
2:53 am 02:53 Clear 45 7.2 27 -2.8 49 49 NW 5 7 30.16 1021 10 16 0.00 0.00
3:53 am 03:53 Clear 46 7.8 28 -2.2 50 50 NW 3 6 30.14 1021 10 16 0.00 0.00
4:53 am 04:53 Clear 45 7.2 28 -2.2 52 52 NNW 5 7 30.15 1021 10 16 0.00 0.00
5:53 am 05:53 Clear 46 7.8 26 -3.3 46 46 NNW 3 6 30.16 1021 10 16 0.00 0.00
6:53 am 06:53 Sunny 45 7.2 27 -2.8 49 49 N 3 6 30.18 1022 10 16 0.00 0.00
7:53 am 07:53 Sunny 47 8.3 28 -2.2 48 48 Calm 30.18 1022 10 16 0.00 0.00
8:53 am 08:53 Sunny 49 9.4 29 -1.7 46 46 SE 5 7 30.18 1022 10 16 0.00 0.00
9:53 am 09:53 Sunny 53 11.7 28 -2.2 38 38 Calm 30.16 1022 10 16 0.00 0.00
10:53 am 10:53 Sunny 56 13.3 28 -2.2 34 34 SSE 3 6 30.14 1021 10 16 0.00 0.00
11:53 am 11:53 Sunny 58 14.4 27 -2.8 31 31 Calm 30.11 1020 10 16 0.00 0.00
12:53 pm 12:53 Sunny 59 15 26 -3.3 28 28 E 3 6 30.07 1018 10 16 0.00 0.00
1:53 pm 13:53 Sunny 59 15 26 -3.3 28 28 Calm 30.05 1018 10 16 0.00 0.00
2:53 pm 14:53 Sunny 60 15.6 26 -3.3 27 27 Calm 30.04 1017 10 16 0.00 0.00
3:53 pm 15:53 Sunny 59 15 26 -3.3 28 28 Calm 30.03 1017 10 16 0.00 0.00
4:53 pm 16:53 Clear 56 13.3 26 -3.3 32 32 Calm 30.03 1017 10 16 0.00 0.00
5:53 pm 17:53 Clear 54 12.2 28 -2.2 37 37 Calm 30.03 1017 10 16 0.00 0.00
6:53 pm 18:53 Clear 52 11.1 29 -1.7 41 41 NNW 3 6 30.05 1018 10 16 0.00 0.00
7:53 pm 19:53 Clear 53 11.7 28 -2.2 38 38 NNW 8 13 30.07 1018 10 16 0.00 0.00
8:53 pm 20:53 Clear 50 10 29 -1.7 44 44 WSW 5 7 30.07 1018 10 16 0.00 0.00
9:53 pm 21:53 Clear 47 8.3 28 -2.2 48 48 Calm 30.08 1019 10 16 0.00 0.00
10:53 pm 22:53 Clear 46 7.8 29 -1.7 51 51 WNW 3 6 30.05 1018 10 16 0.00 0.00
11:53 pm 23:53 Clear 47 8.3 29 -1.7 50 50 N 8 13 30.03 1017 10 16 0.00 0.00

Powered by AerisWeather